Weather in Samandag

Turkey     36°05′01″N   35°58′37″E
temp.,
°C
wind,
m/s
gust,
m/s
humid.,
%
clouds,
%
prec.,
mm/h
press.,
hPa
HPBL,
m
8 august, mon
mon800:00+23sw588114 0.0 1005415
03:00+23sw587921 0.0 1005469
06:00+22sw478113 0.0 1006336
09:00+25sw566622 0.0 1007873
12:00+28w77605 0.0 10071054
15:00+27wsw77610 0.0 1006896
18:00+25wsw57620 0.0 1007773
21:00+23sw577910 0.0 1008382
9 august, tue
tue900:00+22sw578013 0.0 1008384
03:00+22sw468015 0.0 1007345
06:00+22sw468113 0.0 1007322
09:00+26wsw566727 0.0 1007971
12:00+28w66613 0.1 10071021
15:00+27w77620 0.1 1007948
18:00+26wsw68693 0.0 1007898
21:00+24wsw687520 0.0 1007652
10 august, wed
wed1000:00+24wsw687638 0.0 1007643
03:00+24wsw577733 0.1 1006638
06:00+23wsw368414 0.1 1006266
09:00+26wsw677314 0.2 1006839
12:00+26wsw677557 0.5 1006901
15:00+27wsw676512 0.8 1006990
18:00+26sw78691 0.0 1005828
21:00+24sw587925 0.0 1007480
11 august, thu
thu1100:00+24wsw578264 0.0 1006671
03:00+24wsw578078 0.2 1005807
06:00+24sw578615 0.3 1006380
09:00+26w677311 0.4 1006926
12:00+28w77644 0.1 10071059
15:00+28wsw77654 0.2 1006908
18:00+26sw57705 0.0 1006809
21:00+24sw578153 0.0 1007499
12 august, fri
fri1200:00+25wsw578166 0.0 1007738
03:00+24wsw588847 0.3 1006608
06:00+24wsw588643 0.4 1007536
09:00+26wsw67719 0.5 1007873
12:00+28w67570 0.0 1007873
15:00+28w57560 0.0 1006801
18:00+26wsw57600 0.0 1006676
21:00+24sw57750 0.0 1007400